Location: Moscow
(38.8570°N, 84.2291°W)
Time: 15:21:01
(UTC+00:00)

Cosmos 44 Rocket - Pass Details

Date: 15 November 2025
Orbit: 637 x 741 km, 65.1° (Epoch: 06 December)

Event Time Altitude Azimuth Distance (km) Brightness Sun altitude
Rises 22:51:21 0° 186° (S) 2,955 6.9 -6.0°
Reaches altitude 10° 22:53:46 10° 177° (S) 2,062 6.0 -6.4°
Maximum altitude 22:57:59 34° 113° (ESE) 1,101 4.0 -7.2°
Drops below altitude 10° 23:02:19 10° 49° (NE) 2,133 5.2 -8.0°
Enters shadow 23:03:01 - 46° (NE) 2,381 5.5 -8.1°
